Location: Ravensburg
(48.5621°N, 13.4088°E)
Time: 14:54:12
(UTC+02:00)

ISS - Pass Details

Date: 04 January 2018
Orbit: 402 x 408 km, 51.6° (Epoch: 20 July)

Event Time Altitude Azimuth Distance (km) Brightness Sun altitude
Exits shadow 05:29:30 36° 57° (ENE) 686 -2.4 -23.6°
Drops below altitude 10° 05:31:40 10° 68° (ENE) 1,503 -0.2 -23.2°
Enters shadow 06:27:04 -70° 262° (W) 12,431 3.6 -14.3°
